ASA1494 KSFO-KLAX

Flight info

Callsign ASA1494
Flight time 0h 55m
Altitude 37000
Route WESLA5 SUSEY EBAYE BURGL IRNMN2
Aircraft B738/M-SDE2E3FGHIRWXY/LB1

Departure

Time 2026-04-26 01:47
Airport San Francisco International Airport (KSFO)

Arrival

Time 2026-04-26 02:42
Airport Los Angeles International Airport (KLAX)
Time Latitude Longitude Altitude Speed Heading
2026-04-26 01:22 37.61308 -122.38366 21 ft 0 kts 298°
2026-04-26 01:37 37.61307 -122.38364 21 ft 2 kts 298°
2026-04-26 01:37 37.61295 -122.38336 23 ft 4 kts 306°
2026-04-26 01:38 37.61277 -122.38317 22 ft 4 kts 356°
2026-04-26 01:38 37.61255 -122.38323 21 ft 1 kts 29°
2026-04-26 01:38 37.61254 -122.38323 21 ft 0 kts 29°
2026-04-26 01:40 37.61263 -122.38317 22 ft 6 kts 29°
2026-04-26 01:40 37.61317 -122.38239 21 ft 19 kts 72°
2026-04-26 01:40 37.61424 -122.38123 23 ft 21 kts 27°
2026-04-26 01:41 37.61554 -122.38038 21 ft 21 kts 27°
2026-04-26 01:41 37.61670 -122.37938 22 ft 20 kts 63°
2026-04-26 01:41 37.61663 -122.37761 21 ft 23 kts 97°
2026-04-26 01:41 37.61640 -122.37527 21 ft 30 kts 97°
2026-04-26 01:42 37.61609 -122.37259 21 ft 31 kts 107°
2026-04-26 01:42 37.61515 -122.37025 21 ft 27 kts 118°
2026-04-26 01:42 37.61403 -122.36841 22 ft 26 kts 133°
2026-04-26 01:42 37.61313 -122.36657 21 ft 24 kts 117°
2026-04-26 01:43 37.61238 -122.36478 21 ft 23 kts 118°
2026-04-26 01:43 37.61165 -122.36304 22 ft 22 kts 117°
2026-04-26 01:43 37.61098 -122.36135 23 ft 21 kts 124°
2026-04-26 01:43 37.61050 -122.35988 21 ft 17 kts 86°
2026-04-26 01:44 37.61094 -122.35907 23 ft 5 kts 27°
2026-04-26 01:44 37.61102 -122.35902 21 ft 0 kts 27°
2026-04-26 01:44 37.61125 -122.35887 23 ft 11 kts 27°
2026-04-26 01:45 37.61180 -122.35870 21 ft 6 kts 324°
2026-04-26 01:45 37.61197 -122.35899 21 ft 2 kts 298°
2026-04-26 01:45 37.61197 -122.35901 21 ft 0 kts 298°
2026-04-26 01:46 37.61208 -122.35925 23 ft 19 kts 298°
2026-04-26 01:46 37.61386 -122.36348 21 ft 91 kts 298°
2026-04-26 01:46 37.61776 -122.37284 43 ft 146 kts 298°
2026-04-26 01:47 37.62257 -122.38430 668 ft 148 kts 294°
2026-04-26 01:47 37.62756 -122.39601 1350 ft 151 kts 296°
2026-04-26 01:47 37.63262 -122.40776 1973 ft 161 kts 296°
2026-04-26 01:47 37.63813 -122.42105 2405 ft 179 kts 291°
2026-04-26 01:48 37.64023 -122.43630 3077 ft 181 kts 261°
2026-04-26 01:48 37.63457 -122.45093 3448 ft 195 kts 226°
2026-04-26 01:48 37.62252 -122.45976 3743 ft 218 kts 197°
2026-04-26 01:48 37.60660 -122.46001 4062 ft 246 kts 167°
2026-04-26 01:49 37.59154 -122.44850 4653 ft 262 kts 139°
2026-04-26 01:49 37.57872 -122.43219 5471 ft 265 kts 136°
2026-04-26 01:49 37.56583 -122.41492 6104 ft 274 kts 135°
2026-04-26 01:49 37.55254 -122.39725 6820 ft 280 kts 135°
2026-04-26 01:50 37.53886 -122.37966 7601 ft 283 kts 135°
2026-04-26 01:50 37.52488 -122.36179 8263 ft 292 kts 135°
2026-04-26 01:50 37.51058 -122.34376 8991 ft 298 kts 135°
2026-04-26 01:50 37.49597 -122.32557 9966 ft 296 kts 135°
2026-04-26 01:51 37.48099 -122.30708 10477 ft 312 kts 135°
2026-04-26 01:51 37.46483 -122.28726 10680 ft 337 kts 135°
2026-04-26 01:51 37.44747 -122.26608 11012 ft 355 kts 135°
2026-04-26 01:51 37.42938 -122.24413 11645 ft 362 kts 135°
2026-04-26 01:52 37.41114 -122.22202 12439 ft 365 kts 135°
2026-04-26 01:52 37.39295 -122.19943 13213 ft 371 kts 134°
2026-04-26 01:52 37.37455 -122.17646 14013 ft 374 kts 133°
2026-04-26 01:52 37.35617 -122.15369 14759 ft 378 kts 133°
2026-04-26 01:53 37.33734 -122.13061 15613 ft 378 kts 134°
2026-04-26 01:53 37.31840 -122.10762 16495 ft 379 kts 134°
2026-04-26 01:53 37.29933 -122.08462 17404 ft 379 kts 134°
2026-04-26 01:53 37.28025 -122.06170 18253 ft 381 kts 134°
2026-04-26 01:54 37.26105 -122.03871 18929 ft 384 kts 134°
2026-04-26 01:54 37.24153 -122.01536 19466 ft 391 kts 134°
2026-04-26 01:54 37.22171 -121.99168 20015 ft 397 kts 135°
2026-04-26 01:54 37.20162 -121.96770 20616 ft 401 kts 135°
2026-04-26 01:55 37.18155 -121.94379 21179 ft 406 kts 135°
2026-04-26 01:55 37.16097 -121.91927 21735 ft 411 kts 135°
2026-04-26 01:55 37.14005 -121.89437 22188 ft 418 kts 135°
2026-04-26 01:55 37.11886 -121.86917 22761 ft 422 kts 136°
2026-04-26 01:56 37.09743 -121.84371 23332 ft 426 kts 136°
2026-04-26 01:56 37.07590 -121.81814 23837 ft 429 kts 136°
2026-04-26 01:56 37.05410 -121.79229 24288 ft 432 kts 136°
2026-04-26 01:56 37.03257 -121.76677 25138 ft 424 kts 136°
2026-04-26 01:57 37.01098 -121.74119 25462 ft 432 kts 136°
2026-04-26 01:57 36.98889 -121.71504 25694 ft 440 kts 136°
2026-04-26 01:57 36.96686 -121.68899 26106 ft 444 kts 136°
2026-04-26 01:57 36.94439 -121.66244 26552 ft 446 kts 136°
2026-04-26 01:58 36.92176 -121.63573 26934 ft 450 kts 136°
2026-04-26 01:58 36.89896 -121.60884 27355 ft 452 kts 136°
2026-04-26 01:58 36.87605 -121.58183 27822 ft 454 kts 136°
2026-04-26 01:58 36.85299 -121.55469 28254 ft 455 kts 135°
2026-04-26 01:59 36.83013 -121.52780 28985 ft 450 kts 135°
2026-04-26 01:59 36.80733 -121.50100 29502 ft 449 kts 135°
2026-04-26 01:59 36.78491 -121.47467 29968 ft 450 kts 136°
2026-04-26 01:59 36.76195 -121.44772 30149 ft 455 kts 136°
2026-04-26 02:00 36.73882 -121.42060 30432 ft 457 kts 136°
2026-04-26 02:00 36.71572 -121.39356 30899 ft 455 kts 136°
2026-04-26 02:00 36.69264 -121.36654 31188 ft 457 kts 136°
2026-04-26 02:00 36.66940 -121.33937 31449 ft 459 kts 137°
2026-04-26 02:01 36.64609 -121.31213 31804 ft 460 kts 137°
2026-04-26 02:01 36.62276 -121.28489 32175 ft 459 kts 138°
2026-04-26 02:01 36.59945 -121.25770 32505 ft 460 kts 138°
2026-04-26 02:01 36.57635 -121.23077 32784 ft 462 kts 139°
2026-04-26 02:02 36.55295 -121.20351 33207 ft 460 kts 139°
2026-04-26 02:02 36.52957 -121.17632 33564 ft 460 kts 139°
2026-04-26 02:02 36.50616 -121.14910 33847 ft 462 kts 139°
2026-04-26 02:02 36.48267 -121.12180 34128 ft 462 kts 140°
2026-04-26 02:03 36.45920 -121.09456 34422 ft 462 kts 140°
2026-04-26 02:03 36.43573 -121.06729 34701 ft 462 kts 139°
2026-04-26 02:03 36.41342 -121.03829 34944 ft 465 kts 134°
2026-04-26 02:03 36.39240 -121.00839 35188 ft 467 kts 133°
2026-04-26 02:04 36.37140 -120.97767 35459 ft 467 kts 133°
2026-04-26 02:04 36.35045 -120.94687 35728 ft 467 kts 133°
2026-04-26 02:04 36.32949 -120.91619 36048 ft 466 kts 134°
2026-04-26 02:04 36.30844 -120.88561 36301 ft 467 kts 134°
2026-04-26 02:05 36.28722 -120.85502 36507 ft 468 kts 134°
2026-04-26 02:05 36.26589 -120.82443 36739 ft 469 kts 134°
2026-04-26 02:05 36.24451 -120.79384 36952 ft 470 kts 135°
2026-04-26 02:06 36.20160 -120.73260 36934 ft 475 kts 135°
2026-04-26 02:06 36.15846 -120.67105 36931 ft 470 kts 135°
2026-04-26 02:07 36.11574 -120.61021 36940 ft 467 kts 135°
2026-04-26 02:07 36.07306 -120.54957 36932 ft 467 kts 135°
2026-04-26 02:08 36.03039 -120.48904 36940 ft 467 kts 135°
2026-04-26 02:08 35.98800 -120.42901 36953 ft 467 kts 135°
2026-04-26 02:09 35.94521 -120.36852 36939 ft 469 kts 135°
2026-04-26 02:09 35.90225 -120.30787 36927 ft 470 kts 136°
2026-04-26 02:10 35.85646 -120.25103 36929 ft 463 kts 148°
2026-04-26 02:10 35.80216 -120.20939 36938 ft 460 kts 154°
2026-04-26 02:11 35.74718 -120.16906 36911 ft 461 kts 154°
2026-04-26 02:11 35.69276 -120.12820 36937 ft 461 kts 153°
2026-04-26 02:12 35.63799 -120.08692 36941 ft 462 kts 153°
2026-04-26 02:12 35.58323 -120.04555 36910 ft 462 kts 154°
2026-04-26 02:13 35.52849 -120.00423 36933 ft 461 kts 154°
2026-04-26 02:13 35.47376 -119.96302 36938 ft 462 kts 154°
2026-04-26 02:14 35.41902 -119.92187 36927 ft 462 kts 154°
2026-04-26 02:14 35.36423 -119.88073 36929 ft 461 kts 154°
2026-04-26 02:15 35.30948 -119.83970 36941 ft 462 kts 154°
2026-04-26 02:15 35.28200 -119.81892 36456 ft 469 kts 152°
2026-04-26 02:15 35.25540 -119.79592 35944 ft 467 kts 148°
2026-04-26 02:15 35.22994 -119.77187 35275 ft 469 kts 147°
2026-04-26 02:16 35.20438 -119.74704 34599 ft 470 kts 147°
2026-04-26 02:16 35.17878 -119.72223 33912 ft 470 kts 147°
2026-04-26 02:16 35.15298 -119.69757 33076 ft 471 kts 148°
2026-04-26 02:16 35.12709 -119.67313 32316 ft 470 kts 148°
2026-04-26 02:17 35.10112 -119.64884 31573 ft 469 kts 148°
2026-04-26 02:17 35.07516 -119.62469 30796 ft 469 kts 148°
2026-04-26 02:17 35.04917 -119.60056 30007 ft 470 kts 148°
2026-04-26 02:17 35.02315 -119.57642 29018 ft 470 kts 148°
2026-04-26 02:18 34.99717 -119.55230 28127 ft 469 kts 148°
2026-04-26 02:18 34.97122 -119.52822 27241 ft 468 kts 148°
2026-04-26 02:18 34.94553 -119.50437 26644 ft 461 kts 148°
2026-04-26 02:18 34.92049 -119.48115 25982 ft 456 kts 147°
2026-04-26 02:19 34.89534 -119.45812 25506 ft 447 kts 148°
2026-04-26 02:19 34.87049 -119.43584 25073 ft 443 kts 148°
2026-04-26 02:19 34.84532 -119.41352 24628 ft 452 kts 148°
2026-04-26 02:19 34.81983 -119.39089 24194 ft 454 kts 148°
2026-04-26 02:20 34.79456 -119.36832 23746 ft 446 kts 148°
2026-04-26 02:20 34.76985 -119.34621 23252 ft 438 kts 148°
2026-04-26 02:20 34.74555 -119.32451 22760 ft 430 kts 148°
2026-04-26 02:20 34.72156 -119.30341 22298 ft 421 kts 148°
2026-04-26 02:21 34.69795 -119.28285 21871 ft 414 kts 148°
2026-04-26 02:21 34.67475 -119.26265 21443 ft 407 kts 148°
2026-04-26 02:21 34.65195 -119.24276 21016 ft 400 kts 149°
2026-04-26 02:21 34.62947 -119.22329 20613 ft 394 kts 149°
2026-04-26 02:22 34.60733 -119.20422 20216 ft 388 kts 149°
2026-04-26 02:22 34.58574 -119.18564 19824 ft 383 kts 149°
2026-04-26 02:22 34.56412 -119.16704 19436 ft 379 kts 149°
2026-04-26 02:22 34.54279 -119.14837 19059 ft 378 kts 149°
2026-04-26 02:23 34.52165 -119.12960 18681 ft 376 kts 148°
2026-04-26 02:23 34.50059 -119.11086 18281 ft 374 kts 148°
2026-04-26 02:23 34.47963 -119.09226 17855 ft 373 kts 149°
2026-04-26 02:23 34.45873 -119.07376 17442 ft 371 kts 149°
2026-04-26 02:24 34.43796 -119.05543 17072 ft 368 kts 149°
2026-04-26 02:24 34.41728 -119.03743 16704 ft 365 kts 149°
2026-04-26 02:24 34.39665 -119.01961 16325 ft 363 kts 149°
2026-04-26 02:24 34.37617 -119.00192 15942 ft 361 kts 149°
2026-04-26 02:25 34.35580 -118.98432 15568 ft 359 kts 149°
2026-04-26 02:25 34.33586 -118.96697 15217 ft 357 kts 148°
2026-04-26 02:25 34.31601 -118.94903 14849 ft 356 kts 148°
2026-04-26 02:25 34.29634 -118.93102 14468 ft 354 kts 148°
2026-04-26 02:26 34.27675 -118.91316 14121 ft 352 kts 148°
2026-04-26 02:26 34.25719 -118.89541 13743 ft 350 kts 148°
2026-04-26 02:26 34.23777 -118.87766 13341 ft 349 kts 148°
2026-04-26 02:26 34.21850 -118.85992 12945 ft 347 kts 148°
2026-04-26 02:27 34.19943 -118.84237 12570 ft 343 kts 148°
2026-04-26 02:27 34.18057 -118.82504 12222 ft 339 kts 148°
2026-04-26 02:27 34.16193 -118.80779 11859 ft 336 kts 146°
2026-04-26 02:27 34.14459 -118.78971 11538 ft 333 kts 143°
2026-04-26 02:28 34.12758 -118.77087 11199 ft 330 kts 142°
2026-04-26 02:28 34.11089 -118.75226 10848 ft 322 kts 142°
2026-04-26 02:28 34.09471 -118.73438 10533 ft 310 kts 142°
2026-04-26 02:28 34.07907 -118.71727 10233 ft 298 kts 142°
2026-04-26 02:29 34.06389 -118.70076 9985 ft 291 kts 143°
2026-04-26 02:29 34.04888 -118.68450 9686 ft 291 kts 142°
2026-04-26 02:29 34.03462 -118.66711 9332 ft 296 kts 127°
2026-04-26 02:29 34.02726 -118.64391 9064 ft 299 kts 102°
2026-04-26 02:30 34.02475 -118.61900 8765 ft 298 kts 97°
2026-04-26 02:30 34.02273 -118.59417 8454 ft 297 kts 97°
2026-04-26 02:30 34.02060 -118.56948 8149 ft 295 kts 98°
2026-04-26 02:30 34.01840 -118.54497 7877 ft 293 kts 98°
2026-04-26 02:31 34.01622 -118.52118 7625 ft 285 kts 98°
2026-04-26 02:31 34.01404 -118.49790 7383 ft 275 kts 98°
2026-04-26 02:31 34.01192 -118.47545 7157 ft 265 kts 97°
2026-04-26 02:31 34.01045 -118.45366 6925 ft 257 kts 86°
2026-04-26 02:32 34.01372 -118.43289 6745 ft 249 kts 76°
2026-04-26 02:32 34.01760 -118.41259 6539 ft 248 kts 77°
2026-04-26 02:32 34.02123 -118.39236 6340 ft 247 kts 77°
2026-04-26 02:32 34.02476 -118.37215 6123 ft 246 kts 78°
2026-04-26 02:33 34.02807 -118.35209 6030 ft 242 kts 83°
2026-04-26 02:33 34.03023 -118.33203 5954 ft 242 kts 85°
2026-04-26 02:33 34.03220 -118.31157 5450 ft 250 kts 84°
2026-04-26 02:33 34.03421 -118.29045 4873 ft 255 kts 84°
2026-04-26 02:34 34.03619 -118.26964 4316 ft 252 kts 85°
2026-04-26 02:34 34.03807 -118.24888 3801 ft 246 kts 85°
2026-04-26 02:34 34.03990 -118.22868 3345 ft 238 kts 84°
2026-04-26 02:34 34.04188 -118.20922 3062 ft 228 kts 83°
2026-04-26 02:35 34.04392 -118.19069 2934 ft 218 kts 83°
2026-04-26 02:35 34.04573 -118.17303 2810 ft 207 kts 83°
2026-04-26 02:35 34.04485 -118.15635 2639 ft 195 kts 115°
2026-04-26 02:35 34.03621 -118.14442 2605 ft 189 kts 155°
2026-04-26 02:36 34.02410 -118.14213 2594 ft 172 kts 197°
2026-04-26 02:36 34.01450 -118.14958 2614 ft 164 kts 229°
2026-04-26 02:36 34.00691 -118.16007 2604 ft 167 kts 231°
2026-04-26 02:36 33.99931 -118.17080 2604 ft 169 kts 231°
2026-04-26 02:37 33.99175 -118.18162 2597 ft 169 kts 231°
2026-04-26 02:37 33.98418 -118.19248 2599 ft 170 kts 231°
2026-04-26 02:37 33.97672 -118.20320 2613 ft 169 kts 232°
2026-04-26 02:37 33.97177 -118.21570 2597 ft 166 kts 263°
2026-04-26 02:38 33.97036 -118.22949 2602 ft 167 kts 260°
2026-04-26 02:38 33.96854 -118.24329 2614 ft 167 kts 261°
2026-04-26 02:38 33.96702 -118.25713 2496 ft 167 kts 262°
2026-04-26 02:38 33.96558 -118.27101 2294 ft 167 kts 262°
2026-04-26 02:39 33.96416 -118.28467 2085 ft 159 kts 262°
2026-04-26 02:39 33.96284 -118.29749 1859 ft 149 kts 262°
2026-04-26 02:39 33.96159 -118.30957 1683 ft 143 kts 262°
2026-04-26 02:39 33.96037 -118.32141 1506 ft 144 kts 262°
2026-04-26 02:40 33.95916 -118.33313 1299 ft 139 kts 262°
2026-04-26 02:40 33.95799 -118.34450 1129 ft 138 kts 262°
2026-04-26 02:40 33.95680 -118.35595 922 ft 139 kts 262°
2026-04-26 02:40 33.95559 -118.36760 721 ft 141 kts 263°
2026-04-26 02:41 33.95447 -118.37913 538 ft 136 kts 263°
2026-04-26 02:41 33.95333 -118.39045 332 ft 136 kts 262°
2026-04-26 02:41 33.95216 -118.40159 136 ft 132 kts 262°
2026-04-26 02:41 33.95116 -118.41122 94 ft 88 kts 263°
2026-04-26 02:42 33.95063 -118.41633 93 ft 50 kts 263°
2026-04-26 02:42 33.95024 -118.42001 92 ft 31 kts 257°
2026-04-26 02:42 33.94957 -118.42166 93 ft 17 kts 228°
2026-04-26 02:42 33.94888 -118.42251 94 ft 10 kts 216°
2026-04-26 02:43 33.94743 -118.42277 94 ft 12 kts 173°
2026-04-26 02:43 33.94685 -118.42235 94 ft 9 kts 100°
2026-04-26 02:43 33.94690 -118.42165 96 ft 6 kts 83°
2026-04-26 02:44 33.94692 -118.42143 95 ft 1 kts 83°
2026-04-26 02:44 33.94693 -118.42132 93 ft 4 kts 83°
2026-04-26 02:44 33.94702 -118.42044 92 ft 17 kts 83°
2026-04-26 02:44 33.94718 -118.41874 93 ft 22 kts 83°
2026-04-26 02:45 33.94736 -118.41693 92 ft 21 kts 83°
2026-04-26 02:45 33.94754 -118.41519 93 ft 21 kts 83°
2026-04-26 02:45 33.94727 -118.41392 92 ft 16 kts 157°
2026-04-26 02:45 33.94592 -118.41368 94 ft 23 kts 173°
2026-04-26 02:46 33.94429 -118.41345 94 ft 23 kts 173°
2026-04-26 02:46 33.94272 -118.41322 94 ft 22 kts 173°
2026-04-26 02:46 33.94120 -118.41300 94 ft 22 kts 173°
2026-04-26 02:46 33.93972 -118.41279 92 ft 21 kts 173°
2026-04-26 02:47 33.93829 -118.41258 94 ft 19 kts 172°
2026-04-26 02:47 33.93758 -118.41179 94 ft 16 kts 89°
2026-04-26 02:47 33.93777 -118.40995 92 ft 29 kts 83°
2026-04-26 02:47 33.93801 -118.40753 94 ft 29 kts 83°
2026-04-26 02:48 33.93825 -118.40522 96 ft 27 kts 82°
2026-04-26 02:48 33.93845 -118.40339 95 ft 16 kts 83°
2026-04-26 02:48 33.93878 -118.40290 94 ft 9 kts
2026-04-26 02:48 33.93958 -118.40299 93 ft 12 kts 353°
2026-04-26 02:49 33.94032 -118.40314 93 ft 10 kts 349°
2026-04-26 02:49 33.94081 -118.40323 94 ft 7 kts 352°
2026-04-26 02:49 33.94128 -118.40325 92 ft 6 kts 15°
2026-04-26 02:49 33.94143 -118.40284 94 ft 3 kts 84°
2026-04-26 02:50 33.94144 -118.40268 92 ft 0 kts 85°